Regional Weather Roundup
Issued by NWS

Home | Current Version | Previous Version | Graphics & Text | Print | Product List | Glossary On
Versions: 1 2 3 4 5 6 7 8 9 10 11 12 13 14 15 16 17 18 19 20 21 22 23 24 25 26 27 28 29 30 31 32 33 34 35 36 37 38 39 40 41 42 43 44 45 46 47 48 49 50
000
ASUS43 KLOT 301312
RWRIL

ILLINOIS REGIONAL WEATHER ROUNDUP
NATIONAL WEATHER SERVICE CHICAGO/ROMEOVILLE IL
800 AM CDT SUN AUG 30 2015

NOTE: "FAIR" INDICATES FEW OR NO CLOUDS BELOW 12,000 FEET WITH NO
SIGNIFICANT WEATHER AND/OR OBSTRUCTIONS TO VISIBILITY.

* THESE STATIONS ARE NOT UNDER NWS QUALITY CONTROL. THEY ALSO MAY NOT
  REPORT WEATHER SUCH AS PRECIPITATION OR FOG.

ILZ001-002-007-009-015-016-024-301400-
NORTHWEST ILLINOIS

CITY           SKY/WX    TMP DP  RH WIND       PRES   REMARKS
MOLINE         FOG       63  61  93 E7        30.07R VSB<1/4
STERLING*      MOSUNNY   66  64  94 E3        30.05S
SAVANNA*       SUNNY     64  62  94 CALM      30.07R
$$

ILZ003-004-008-010-011-017-018-301400-
NORTH CENTRAL ILLINOIS

CITY           SKY/WX    TMP DP  RH WIND       PRES   REMARKS
ROCKFORD       CLOUDY    67  62  84 NE3       30.09R
FREEPORT*      CLOUDY    64  63  96 CALM      30.10R FOG
ROCHELLE*      CLOUDY    64  63  96 CALM      30.08S FOG
DE KALB*       CLOUDY    64  63  96 CALM      30.09R FOG
PERU*          FOG       65  64  98 NE3       30.08R VSB 3/4
$$

ILZ005-006-012>014-019>023-301400-
NORTHEAST ILLINOIS

CITY           SKY/WX    TMP DP  RH WIND       PRES   REMARKS
CHICAGO-OHARE  CLOUDY    66  63  90 NE3       30.07R FOG
CHICAGO-MIDWAY CLOUDY    68  63  84 E3        30.07R FOG
AURORA         CLOUDY    66  64  93 CALM      30.09R FOG
LANSING*       CLOUDY    64  64  97 CALM      30.08S FOG
JOLIET*        CLOUDY    67  65  94 E5        30.08R FOG
WAUKEGAN       FOG       63  63 100 N6        30.07R VSB 1/4
DUPAGE AIRPORT CLOUDY    66  62  87 NE3       30.07R FOG
KANKAKEE*      FOG       66  66  99 NE6       30.08R VSB 1
WHEELING       CLOUDY    66  63  90 CALM      30.08R FOG
MORRIS*        CLOUDY    65  64  97 E3        30.06S FOG
ROMEOVILLE*    CLOUDY    65  64  94 E3        30.07S FOG
NORTHERLY ISL    N/A     64  63  96 MISG        N/A
$$

LMZ740>746-301400-
SOUTHERN LAKE MICHIGAN

STATION/POSITION SKY/WX   TEMP    WIND        PRES    VSBY  WAVE
                          AIR SEA DIR/SP/G                  HT/PER
                          (F)     (DEG/KT/KT) (MB)    (MI)  (FT/S)
SOUTHERN BUOY              67 68  350/  8/ 10 1017.4R         1
WILMETTE HARBOR            61 58  150/  2/  2   N/A           1/ 3
HARRISON CRIB              63     330/  6/  7   N/A
BURNHAM HARBOR             64     360/  3/  5   N/A
BURNS HARBOR               67     340/  6/  8 1018.3R
MICHIGAN CITY              68     320/  9/  9   N/A
MICHIGAN CITY 6N           68 70  350/  4/  6   N/A           1/ 3
ST. JOSEPH                 69 70  330/  4/  4   N/A           1/ 3
$$

ILZ025>027-034>036-040-047-049-050-058-095>099-301400-
WEST-CENTRAL ILLINOIS

CITY           SKY/WX    TMP DP  RH WIND       PRES   REMARKS
QUINCY         CLOUDY    69  68  96 NE6       30.05R FOG
GALESBURG*     DRZL/FOG  64  63  99 NE3       30.07R VSB<1/4
MACOMB*        FOG       67  67 100 NE5       30.08R VSB 1/4
JACKSONVILLE*  CLOUDY    69  68  96 CALM      30.05R FOG
PITTSFIELD*    FOG       71  69  95 CALM      30.06R VSB<1/4
$$

ILZ028>032-037-038-041>044-048-051>054-059>061-301400-
CENTRAL ILLINOIS

CITY           SKY/WX    TMP DP  RH WIND       PRES   REMARKS
PONTIAC        FOG       68  68 100 NE6       30.08R VSB 1/4
BLOOMINGTON    FOG       68  68 100 E6        30.07R VSB 1/8
DECATUR        CLOUDY    70  66  87 SW3       30.06R
PEORIA         FOG       69  67  93 NE5       30.06R VSB<1/4
LACON*         FOG       65  64  97 CALM      30.06R VSB 1/4
LINCOLN*       PTSUNNY   70  67  90 CALM      30.05R
SPRINGFIELD    CLOUDY    72  68  87 S3        30.05R
TAYLORVILLE    CLOUDY    68  66  94 CALM      30.06R
$$

ILZ033-039-045-046-055>057-062-063-301400-
EAST-CENTRAL ILLINOIS

CITY           SKY/WX    TMP DP  RH WIND       PRES   REMARKS
CHAMPAIGN      PTSUNNY   68  66  93 S3        30.07R FOG
RANTOUL*       CLOUDY    69  68  98 CALM      30.07R FOG
MATTOON        CLOUDY    69  63  81 S6        30.07R
PARIS*         CLOUDY    69  68  95 CALM      30.08R
$$

ILZ079-100>102-301400-
SOUTHWEST ILLINOIS

CITY           SKY/WX    TMP DP  RH WIND       PRES   REMARKS
ALTON          MOSUNNY   68  66  94 CALM      30.06R
BELLEVILLE     PTSUNNY   70  69  99 E5        30.05R
CAHOKIA*       MOSUNNY   71  66  84 SE5       30.05R
SPARTA*        MOSUNNY   68  66  94 CALM      30.07R
$$

ILZ064>066-069>071-074>076-080>082-084>086-088>090-092>094-301400-
SOUTH-CENTRAL ILLINOIS

CITY           SKY/WX    TMP DP  RH WIND       PRES   REMARKS
CARBONDALE     MOSUNNY   70  67  90 SE3       30.06R
CAIRO*         CLOUDY    71  71 100 SE9       30.06S
EFFINGHAM*     PTSUNNY   70  62  77 CALM      30.09R
MARION         CLOUDY    72  70  94 SE5       30.07R
MT. VERNON     MOSUNNY   66  63  88 CALM      30.08R
SALEM*         CLOUDY    70  65  85 CALM      30.07S
METROPOLIS*    CLOUDY    71  71  99 CALM      30.08S
$$

ILZ067-068-072-073-078-083-087-091-301400-
SOUTHEAST ILLINOIS

CITY           SKY/WX    TMP DP  RH WIND       PRES   REMARKS
LAWRENCEVILLE  MOSUNNY   72  70  93 S5        30.08S FOG
FLORA*         PTSUNNY   69  66  90 CALM      30.07S
FAIRFIELD*     CLOUDY    69  68  96 CALM      30.06S
HARRISBURG*    LGT RAIN  71  71  99 E3        30.07S
ROBINSON*      MOSUNNY   67  66  97 CALM      30.09R FOG
CARMI*         CLOUDY    74  72  95 S5        30.07R FOG
$$

ABBREVIATIONS USED IN REMARKS
   TC - TEMPERATURE IN CELSIUS
  WCI - WIND CHILL INDEX
   HX - HEAT INDEX
  VSB - VISIBILITY
$$



USA.gov is the U.S. government's official web portal to all federal, state and local government web resources and services.